Weather Roundup
Issued by NWS Chicago, IL

Home | Current Version | Previous Version | Graphics & Text | Print | Product List | Glossary On
Versions: 1 2 3 4 5 6 7 8 9 10 11 12 13 14 15 16 17 18 19 20 21 22 23 24 25 26 27 28 29 30 31 32 33 34 35 36 37 38 39 40 41 42 43 44 45 46 47 48 49 50
000
NZUS59 KLOT 211800
HRRLOT

CHICAGO AREA WEATHER ROUNDUP
NATIONAL WEATHER SERVICE CHICAGO/ROMEOVILLE IL
100 PM CDT TUE OCT 21 2014

NOTE: "FAIR" INDICATES FEW OR NO CLOUDS BELOW 12,000 FEET WITH NO
SIGNIFICANT WEATHER AND/OR OBSTRUCTIONS TO VISIBILITY.

* THESE STATIONS ARE NOT UNDER NWS QUALITY CONTROL. THEY ALSO MAY NOT
  REPORT WEATHER SUCH AS PRECIPITATION OR FOG.

ILZ005-006-012>014-019>023-211900-
NORTHEAST ILLINOIS

CITY           SKY/WX    TMP DP  RH WIND       PRES   REMARKS
OHARE          CLOUDY    52  40  63 NE18      30.17S
6HR MIN TEMP:  45; 6HR MAX TEMP:  53;

MIDWAY         CLOUDY    53  43  68 N15G22    30.17R
6HR MIN TEMP:  49; 6HR MAX TEMP:  54;

AURORA         PTSUNNY   53  38  56 NE10      30.18S
6HR MIN TEMP:  40; 6HR MAX TEMP:  55;

WAUKEGAN       CLOUDY    48  39  71 N9        30.19S
6HR MIN TEMP:  45; 6HR MAX TEMP:  49;

DUPAGE AIRPORT PTSUNNY   57  42  57 N13       30.17S
6HR MIN TEMP:  42; 6HR MAX TEMP:  57;

WHEELING       CLOUDY    53  41  63 N9G22     30.19R
6HR MIN TEMP:  47; 6HR MAX TEMP:  54;

NORTHERLY IS     N/A     50  44  80 N16         N/A
$$

WIZ051-052-058>065-066-070>072-211900-
SOUTHEAST WISCONSIN

CITY           SKY/WX    TMP DP  RH WIND       PRES   REMARKS
MILWAUKEE      CLOUDY    48  39  71 N10       30.20F
6HR MIN TEMP:  45; 6HR MAX TEMP:  48;

KENOSHA*       CLOUDY    49  39  68 N9G21     30.20S
RACINE*        CLOUDY    48  40  73 N17       30.21S
WAUKESHA       CLOUDY    45  37  76 N10       30.22S
$$

INZ001>003-010>013-019-020-211900-
NORTHWEST INDIANA

CITY           SKY/WX    TMP DP  RH WIND       PRES   REMARKS
GARY*          CLOUDY    52  45  76 N12G23    30.16S
MICHIGAN CITY* NOT AVBL
RENSSELAER*    NOT AVBL
VALPARAISO     LGT RAIN  50  44  80 VRB7G20   30.14R
$$

LMZ740>746-211900-
SOUTHERN LAKE MICHIGAN

STATION/POSITION TIME  SKY/WX   TEMP WIND        PRES    VSBY
                                AIR  DIR/SP/G
                 (UTC)          (F)  (DEG/KT/KT) (MB)    (MI)
HARRISON CRIB    1700            49  350/ 25/ 29   N/A
BURNHAM HARBOR   1800            50  350/ 14/ 19   N/A
CALUMET HARBOR   1700                330/ 15/ 23   N/A
BURNS HARBOR     NOT AVBL
MICHIGAN CITY    1700            51  360/ 22/ 26   N/A
$$

ABBREVIATIONS USED IN REMARKS
   TC - TEMPERATURE IN CELSIUS
  WCI - WIND CHILL INDEX
   HX - HEAT INDEX
  VSB - VISIBILITY
$$



USA.gov is the U.S. government's official web portal to all federal, state and local government web resources and services.